Showing default

GAOFEN 1-03, 43260

Orbit data source: Space-Track

GAOFEN 1-03, 43260 is a payload satellite owned by GGKGJ (CN) in SSO that was launched on Sat, 31 Mar 2018 UTC via a CHANG ZHENG 4C launch vehicle from the Taiyaun Space Center, China (TSC). Payload-class satellites include a variety of spacecraft equipped with specific instruments for various scientific and technological missions. These include communications satellites like Starlink; space stations such as the ISS; scientific satellites like the Hubble; Earth observation satellites from companies like Planet Labs, Umbra, and HawkEye 360; GPS; miniature CubeSats for education and research; and military/defense satellites.

Loading next visibility...
Identifier
43260, 2018-031B
Orbit
SSO
Country
Flag of CNCN / PRC
Related business
Manufacturer
DFH
Mission
Operational Civil Imaging
Bus & Motor
CAST-2000, AOCS
Mass
805 kg wet, ~700 kg dry
Launch date (UTC)
2018-03-31 (8 years ago)
Launch vehicle
CHANG ZHENG 4C
Launch site
Taiyaun Space Center, China (TSC)
Object type
Payload
Rocket body
Debris
Shape & HBR
Box + 2 Pan, 2.0 m
Radar Cross Section
4.991 m², Large (>1 m²)

Expand to show TLE details & history
Last TLE update: 22 hours ago

TLE from 22 hours ago
0 GAOFEN 1-03
1 43260U 18031B   26172.54615247  .00000465  00000-0  74163-4 0  9990
2 43260  98.0516 234.9193 0003641  70.2600 289.9002 14.76473961443331
Epoch: 2026-06-21T13:06Z
TLE epoch observation values (Epoch: 2026-06-21T13:06:27.573Z)
Latitude
-0.00002°
Longitude
128.55954°
Altitude
642.619 km
Speed
7.537 km/s
True Right ascension
15h 39m 40s
True Declination
0° 00' 00"
Sunlit
Object was in full shadow at epoch
Visualization orbit readout
Latitude
Unknown
Longitude
Unknown
Altitude
Unknown
Speed
Unknown
Apparent Right ascension
Unknown
Apparent Declination
Unknown
Sunlit
N/A
Visualization observer readout
Local Sidereal Time
21:57:15
Azimuth
Unknown
Elevation
Unknown
Doppler factor
Unknown
Orbital elements
Apogee altitude
640.083 km
Perigee altitude
634.974 km
Semi-major axis
7,015.666 km
Eccentricity
0.00036
Inclination
98.0516°
RAAN
234.9193°
Arg. of periapsis
70.26°
True anomaly
289.86096°
Mean anomaly
289.9002°
Eccentric anomaly
289.88058°
Mean motion
3.69351 °/min
Orbital period
97.47 mins
BSTAR
0.000074163
Loading maneuver chart data...
Computing Atmospheric mass density...
Loading historical data...
Loading historical data...
Loading historical data...
Loading historical data...
Loading historical data...
Loading historical data...
Loading historical data...

Documentation

Showing up to 5 results
|